Tracking 33208 objects as of 14-Feb-2026
HD Live streaming from Space Station
objects crossing your sky now

QIANFAN-77

Track QIANFAN-77 now!
10-day predictions
QIANFAN-77 is classified as:


NORAD ID: 63163
Int'l Code: 2025-046E
Perigee: 904.9 km
Apogee: 923.6 km
Inclination: 89.0 °
Period: 103.1 minutes
Semi major axis: 7285 km
RCS: Unknown
Launch date: March 11, 2025
Source: People's Republic of China (PRC)
Launch site: Wenchang Satellite Launch Center (WSC)
Your satellite tracking list
Your tracking list is empty




NASA's NSSDC Master Catalog

Two Line Element Set (TLE):
1 63163U 25046E   26045.47326661  .00000408  00000-0  28722-3 0  9994
2 63163  88.9784 311.0292 0012817 240.1281 119.8623 13.96160003 57348
Source of the keplerian elements: AFSPC